Weather History for KBAB - May, 2013

Change the Weather History Date:

Thursday, May 2, 2013

  Actual Average Record
Temperature  
Mean Temperature 68 °F -  
Max Temperature 90 °F 74 °F 93 °F (2004)
Min Temperature 48 °F 51 °F 47 °F (2008)
Cooling Degree Days 4    
Growing Degree Days 18 (Base 50)    
Moisture  
Dew Point 33 °F    
Average Humidity 32    
Maximum Humidity 61    
Minimum Humidity 8    
Precipitation  
Precipitation 0.00 in - - ()
Sea Level Pressure  
Sea Level Pressure 30.28 in    
Wind  
Wind Speed 7 mph (NW)    
Max Wind Speed 13 mph    
Max Gust Speed -    
Visibility 10 miles    
Events      
Averages and records for this station are not official NWS values.
T = Trace of Precipitation, MM = Missing Value Source: NWS Daily Summary

Daily Weather History Graph

Daily Weather History Graph

Search for Another Location

Airport or City:

Trip Planner

Search our weather history database for the weather conditions in past years. The results will help you decide how hot, cold, wet, or windy it might be!

Date:

Astronomy

May. 02, 2013 Rise Set
Actual Time 6:05 AM PDT 8:00 PM PDT
Civil Twilight 5:36 AM PDT 8:29 PM PDT
Nautical Twilight 5:01 AM PDT 9:04 PM PDT
Astronomical Twilight 4:23 AM PDT 9:42 PM PDT
Moon 1:53 AM PDT (5/2) 12:58 PM PDT (5/2)
Length of Visible Light 14h 52m
Length of Day
13h 54m
Waning Gibbous, 46% of the Moon is Illuminated
May 2
Waning Gibbous
May 9
New
May 17
First Quarter
May 24
Full
May 31
Last Quarter

Hourly Weather History & Observations

Time (PDT) Temp. Dew Point Humidity Pressure Visibility Wind Dir Wind Speed Gust Speed Precip Events Conditions
12:58 AM 58.6 °F 31.5 °F 36% 30.32 in 10.0 mi NW 4.6 mph - N/A   Clear
1:38 AM 53.6 °F 33.8 °F 47% 30.11 in 9.0 mi NNW 5.8 mph - N/A   Clear
1:58 AM 56.8 °F 33.8 °F 42% 30.33 in 10.0 mi NNW 6.9 mph - N/A   Clear
2:58 AM 52.7 °F 35.4 °F 52% 30.33 in 10.0 mi NW 10.4 mph - N/A   Clear
3:28 AM 50.0 °F 35.6 °F 58% 30.12 in 10.0 mi NW 9.2 mph - N/A   Clear
3:58 AM 49.1 °F 36.0 °F 61% 30.35 in 9.0 mi NW 5.8 mph - N/A   Clear
4:58 AM 48.4 °F 32.2 °F 54% 30.35 in 10.0 mi NW 8.1 mph - N/A   Clear
5:28 AM 51.8 °F 35.6 °F 54% 30.13 in 9.0 mi NW 9.2 mph - N/A   Clear
5:58 AM 49.6 °F 35.1 °F 57% 30.35 in 10.0 mi NW 10.4 mph - N/A   Clear
6:58 AM 54.0 °F 32.9 °F 45% 30.38 in 10.0 mi NW 9.2 mph - N/A   Clear
7:58 AM 59.9 °F 32.7 °F 36% 30.38 in 10.0 mi NNW 10.4 mph - N/A   Clear
8:58 AM 64.4 °F 32.0 °F 30% 30.17 in 10.0 mi NW 9.2 mph - N/A   Clear
9:58 AM 70.9 °F 32.7 °F 24% 30.38 in 10.0 mi NW 10.4 mph - N/A   Clear
10:58 AM 76.5 °F 30.6 °F 19% 30.38 in 10.0 mi NW 12.7 mph - N/A   Clear
11:58 AM 80.6 °F 30.9 °F 16% 30.38 in 10.0 mi NW 9.2 mph - N/A   Clear
12:58 PM 84.4 °F 29.3 °F 14% 30.35 in 9.0 mi NW 8.1 mph - N/A   Clear
1:58 PM 86.9 °F 25.9 °F 11% 30.33 in 9.0 mi Variable 5.8 mph - N/A   Clear
2:58 PM 87.6 °F 30.7 °F 13% 30.32 in 9.0 mi West 5.8 mph - N/A   Clear
3:58 PM 88.5 °F 26.4 °F 11% 30.30 in 9.0 mi West 4.6 mph - N/A   Clear
4:58 PM 89.4 °F 32.5 °F 13% 30.28 in 9.0 mi West 5.8 mph - N/A   Clear
5:58 PM 89.6 °F 21.4 °F 8% 30.27 in 9.0 mi NW 2.3 mph - N/A   Clear
6:58 PM 87.8 °F 25.2 °F 10% 30.26 in 10.0 mi NNW 1.2 mph - N/A   Clear
7:51 PM 80.6 °F 37.4 °F 21% 30.03 in 9.0 mi SSE 2.3 mph - N/A   Light Drizzle
7:58 PM 80.1 °F 36.0 °F 20% 30.25 in 9.0 mi SSE 4.6 mph - N/A   Clear
8:58 PM 72.9 °F 40.6 °F 31% 30.26 in 10.0 mi East 3.5 mph - N/A   Clear
9:58 PM 68.9 °F 36.7 °F 31% 30.27 in 10.0 mi ENE 3.5 mph - N/A   Clear
10:58 PM 65.3 °F 36.7 °F 35% 30.27 in 10.0 mi ENE 2.3 mph - N/A   Clear
11:58 PM 65.8 °F 39.9 °F 39% 30.26 in 10.0 mi ENE 8.1 mph - N/A   Clear